Location: Fort Wayne
(41.1310°N, 85.1290°W)
Time: 23:58:47
(UTC-04:00)

Meteor 2-9 Rocket - Visible Passes

Search period start: 27 March 2015 00:00
Search period end: 06 April 2015 00:00
Orbit: 791 x 896 km, 81.3° (Epoch: 27 March)

Date Brightness Start Highest point End Pass type
(mag) Time Alt. Az. Time Alt. Az. Time Alt. Az.
27 Mar 5.4 05:11:53 10° N 05:16:50 38° ENE 05:21:47 10° SE visible
27 Mar 5.1 06:55:08 10° NW 06:59:26 24° W 07:03:34 10° SW visible
28 Mar 5.7 04:57:55 10° N 05:02:44 34° ENE 05:07:32 10° SE visible
28 Mar 4.9 06:40:55 10° NNW 06:45:25 28° W 06:49:48 10° SSW visible
29 Mar 5.9 04:43:59 10° N 04:48:37 30° ENE 04:53:17 10° SE visible
29 Mar 4.8 06:26:44 10° NNW 06:31:25 31° W 06:36:00 10° SSW visible
30 Mar 6.0 04:30:05 10° NNE 04:34:30 26° ENE 04:38:58 10° SE visible
30 Mar 4.6 06:12:33 10° NNW 06:17:24 36° W 06:22:10 10° SSW visible
31 Mar 6.2 04:16:12 10° NNE 04:20:22 23° ENE 04:24:37 10° ESE visible
31 Mar 4.4 05:58:24 10° NNW 06:03:23 41° W 06:08:18 10° SSW visible
01 Apr 6.4 04:02:21 10° NNE 04:06:13 21° ENE 04:10:14 10° ESE visible
01 Apr 4.3 05:44:16 10° NNW 05:49:21 47° W 05:53:37 14° SSW visible
02 Apr 6.5 03:48:32 10° NNE 03:52:04 18° ENE 03:55:47 10° ESE visible
02 Apr 4.1 05:30:08 10° NNW 05:35:19 54° W 05:37:54 28° SSW visible
03 Apr 6.6 03:34:47 10° NNE 03:37:55 16° ENE 03:41:00 11° ESE visible
03 Apr 4.0 05:16:02 10° NNW 05:21:18 62° W 05:22:47 44° SSW visible
04 Apr 6.7 03:21:05 10° NNE 03:23:45 14° ENE 03:26:08 11° E visible
04 Apr 3.9 05:01:57 10° NNW 05:07:14 71° W 05:07:57 62° SW visible
05 Apr 6.8 03:07:32 10° NE 03:09:35 12° ENE 03:11:30 11° E visible
05 Apr 3.9 04:47:52 10° NNW 04:53:12 81° W 04:53:18 80° WSW visible
